Total_Precipitation_Accumulation
0.31 0.47 1.08 1.32 1.39 1.44 1.43 1.37 1.23 1.16 1.15 1.31 1.39 1.39 1.29 1.24 1.25 1.25 1.24 1.31 1.46 1.69 1.89 1.97 1.85 1.80 1.63 1.50 1.33 1.06 0.94 0.84 0.79 0.73 0.72 0.83 0.95 0.98 0.83 0.81 0.83 0.88 1.22
0.31 0.43 0.99 1.37 1.49 1.52 1.52 1.44 1.21 1.07 1.11 1.24 1.43 1.50 1.46 1.33 1.28 1.33 1.37 1.41 1.65 1.84 1.94 1.99 1.81 1.70 1.53 1.32 1.09 0.85 0.72 0.59 0.50 0.41 0.38 0.54 0.78 0.94 0.84 0.81 0.86 1.04 1.13
0.36 0.48 0.88 1.37 1.60 1.64 1.64 1.51 1.29 1.11 1.14 1.16 1.34 1.51 1.58 1.50 1.46 1.46 1.51 1.59 1.73 1.76 1.82 1.84 1.77 1.60 1.30 1.08 0.90 0.74 0.62 0.50 0.42 0.35 0.36 0.49 0.72 1.04 1.02 0.94 1.02 1.19 1.13
0.41 0.57 0.88 1.40 1.69 1.74 1.65 1.54 1.41 1.27 1.18 1.16 1.25 1.42 1.56 1.62 1.65 1.62 1.64 1.76 1.73 1.64 1.65 1.59 1.50 1.38 1.13 0.93 0.81 0.73 0.61 0.50 0.42 0.37 0.46 0.56 0.72 1.30 1.39 1.29 1.27 1.26 1.14
0.51 0.68 1.06 1.60 1.83 1.86 1.74 1.62 1.55 1.41 1.25 1.24 1.27 1.29 1.42 1.56 1.69 1.85 1.87 1.86 1.76 1.57 1.50 1.44 1.28 1.21 1.10 1.00 0.87 0.72 0.61 0.50 0.37 0.40 0.52 0.65 0.95 1.67 1.54 1.40 1.34 1.28 1.13
0.71 0.92 1.25 1.69 1.86 1.90 1.86 1.79 1.74 1.57 1.43 1.48 1.46 1.40 1.38 1.44 1.59 1.79 1.84 1.79 1.72 1.57 1.47 1.36 1.22 1.14 1.09 1.00 0.91 0.77 0.64 0.50 0.38 0.42 0.52 0.66 0.96 1.60 1.46 1.30 1.28 1.22 1.14
0.95 1.15 1.42 1.76 1.92 1.91 1.91 1.95 1.89 1.84 1.82 1.77 1.71 1.57 1.49 1.46 1.51 1.58 1.60 1.56 1.64 1.59 1.44 1.40 1.26 1.17 1.08 0.99 0.95 0.79 0.64 0.48 0.41 0.48 0.55 0.66 1.09 1.58 1.53 1.37 1.36 1.30 1.25
1.23 1.42 1.63 1.97 2.10 2.04 1.97 1.98 2.06 2.14 2.16 2.04 1.94 1.79 1.61 1.59 1.55 1.48 1.43 1.41 1.53 1.57 1.49 1.42 1.28 1.16 1.07 1.00 0.95 0.82 0.62 0.47 0.44 0.43 0.48 0.70 1.22 1.53 1.50 1.32 1.29 1.28 1.28
1.64 1.80 2.02 2.14 2.10 2.16 2.12 2.09 2.10 2.20 2.27 2.20 1.98 1.88 1.72 1.62 1.54 1.43 1.36 1.42 1.46 1.51 1.49 1.39 1.31 1.14 1.04 0.95 0.81 0.69 0.53 0.44 0.41 0.43 0.48 0.75 1.23 1.58 1.52 1.32 1.24 1.23 1.22
2.18 2.29 2.44 2.51 2.35 2.25 2.16 2.15 2.09 2.10 2.27 2.32 2.09 1.76 1.56 1.53 1.54 1.46 1.27 1.39 1.49 1.47 1.49 1.39 1.31 1.19 0.98 0.82 0.70 0.61 0.47 0.40 0.40 0.44 0.56 0.81 1.22 1.55 1.54 1.32 1.29 1.30 1.28
2.72 2.75 2.77 2.84 2.77 2.63 2.48 2.24 2.23 2.21 2.30 2.27 2.04 1.79 1.65 1.62 1.50 1.37 1.13 1.14 1.37 1.45 1.42 1.39 1.26 1.14 0.93 0.74 0.66 0.56 0.45 0.40 0.44 0.49 0.60 0.95 1.29 1.49 1.55 1.38 1.32 1.32 1.32
2.86 3.01 3.04 3.07 3.05 2.95 2.78 2.63 2.48 2.35 2.35 2.21 1.89 1.73 1.74 1.70 1.56 1.33 1.24 1.16 1.27 1.33 1.39 1.43 1.32 1.12 0.94 0.74 0.69 0.61 0.49 0.47 0.52 0.52 0.66 0.96 1.25 1.43 1.47 1.37 1.36 1.29 1.26
3.11 3.35 3.42 3.45 3.49 3.52 3.26 2.95 2.78 2.59 2.37 2.35 2.07 1.83 1.78 1.87 1.81 1.68 1.45 1.35 1.36 1.27 1.26 1.32 1.27 1.07 0.86 0.72 0.66 0.57 0.55 0.55 0.55 0.58 0.70 0.85 1.12 1.34 1.39 1.36 1.38 1.39 1.37
3.35 3.59 3.91 3.96 3.92 3.94 3.67 3.31 2.98 2.80 2.56 2.37 2.35 2.11 1.96 1.91 1.79 1.69 1.49 1.33 1.29 1.18 1.15 1.26 1.24 1.08 0.94 0.76 0.70 0.67 0.64 0.62 0.59 0.61 0.70 0.80 0.96 1.27 1.50 1.56 1.51 1.50 1.54
3.28 3.63 4.07 4.16 4.07 4.01 3.79 3.45 3.10 2.94 2.78 2.54 2.62 2.50 2.21 2.03 1.89 1.81 1.72 1.52 1.41 1.27 1.15 1.16 1.29 1.23 1.14 1.03 0.87 0.76 0.74 0.71 0.66 0.62 0.63 0.74 0.86 1.12 1.45 1.59 1.59 1.72 1.74
3.31 3.56 3.99 4.18 4.10 4.08 3.89 3.51 3.15 2.91 2.86 2.76 2.59 2.49 2.41 2.22 2.08 2.02 1.88 1.69 1.52 1.35 1.22 1.15 1.20 1.30 1.26 1.20 1.10 0.97 0.91 0.83 0.74 0.68 0.63 0.68 0.80 0.91 1.18 1.41 1.53 1.74 2.01
3.32 3.64 3.85 4.14 4.30 4.13 4.04 3.67 3.29 3.13 2.96 2.83 2.65 2.51 2.46 2.38 2.25 2.22 2.06 1.80 1.66 1.57 1.44 1.38 1.39 1.40 1.33 1.19 1.09 1.08 1.05 0.94 0.83 0.77 0.71 0.68 0.73 0.82 1.02 1.27 1.41 1.60 1.86
3.33 3.66 3.83 3.98 4.17 4.15 4.13 3.97 3.44 3.19 3.10 2.96 2.80 2.68 2.54 2.47 2.41 2.42 2.27 1.98 1.95 2.01 1.86 1.67 1.59 1.51 1.36 1.26 1.15 1.14 1.11 1.06 0.90 0.81 0.78 0.74 0.73 0.77 0.93 1.16 1.30 1.42 1.60
3.21 3.58 3.84 3.97 4.06 4.23 4.25 4.20 4.01 3.61 3.22 3.18 3.12 2.86 2.61 2.51 2.45 2.43 2.37 2.22 2.22 2.27 2.19 1.98 1.86 1.77 1.56 1.42 1.34 1.32 1.32 1.28 1.19 1.03 0.90 0.90 0.88 0.85 0.99 1.20 1.29 1.32 1.37
3.19 3.57 3.88 3.97 3.96 4.25 4.57 4.53 4.36 4.14 3.59 3.24 3.16 3.03 2.83 2.62 2.47 2.42 2.31 2.37 2.43 2.42 2.37 2.28 2.10 2.00 1.87 1.74 1.66 1.55 1.54 1.50 1.39 1.21 1.07 1.02 1.00 0.98 1.08 1.16 1.18 1.27 1.31
3.14 3.45 3.76 3.91 3.86 3.92 4.23 4.33 4.14 3.94 3.80 3.45 3.17 3.13 3.06 2.89 2.80 2.64 2.38 2.40 2.52 2.41 2.30 2.37 2.40 2.37 2.26 2.09 2.03 1.89 1.78 1.65 1.53 1.30 1.13 1.09 1.09 1.09 1.10 1.14 1.15 1.06 0.97
2.81 3.21 3.54 3.78 3.93 3.82 3.72 3.91 3.98 3.93 3.82 3.64 3.41 3.32 3.16 3.00 2.90 2.85 2.74 2.61 2.68 2.63 2.51 2.42 2.44 2.51 2.42 2.37 2.33 2.27 2.11 2.00 1.69 1.40 1.24 1.16 1.14 1.17 1.17 1.14 1.09 1.04 0.91
2.48 2.81 3.15 3.46 3.74 3.95 3.90 4.07 4.19 4.19 4.00 3.75 3.43 3.22 3.09 3.02 2.98 2.86 2.82 2.80 2.78 2.80 2.69 2.56 2.47 2.48 2.49 2.40 2.36 2.50 2.25 1.93 1.70 1.53 1.31 1.21 1.19 1.19 1.22 1.22 1.15 1.08 1.00
2.18 2.46 2.74 3.15 3.51 3.83 3.98 3.96 3.97 4.03 3.84 3.48 3.32 3.35 3.23 3.01 2.92 2.91 2.82 2.77 2.80 2.77 2.72 2.73 2.72 2.57 2.56 2.55 2.46 2.29 2.08 1.81 1.74 1.66 1.50 1.39 1.30 1.22 1.23 1.25 1.19 1.11 1.08
1.92 2.22 2.43 2.75 3.11 3.41 3.49 3.50 3.65 3.75 3.75 3.58 3.49 3.44 3.38 3.11 2.84 2.78 2.78 2.72 2.68 2.70 2.69 2.72 2.74 2.76 2.67 2.58 2.49 2.39 2.27 2.00 1.80 1.77 1.68 1.60 1.60 1.45 1.33 1.29 1.27 1.23 1.16
1.63 1.94 2.22 2.37 2.63 2.88 3.03 3.12 3.26 3.28 3.40 3.45 3.38 3.42 3.45 3.27 2.96 2.77 2.71 2.61 2.58 2.60 2.57 2.62 2.69 2.77 2.72 2.58 2.45 2.28 2.22 2.11 1.93 1.88 1.74 1.59 1.67 1.61 1.52 1.43 1.37 1.35 1.35